This demonstration page uses our WeatherBlox Daily Observations layout. Learn more.

Left ArrowRight Arrow

Hourly Observations for January 26, 2017

Temp ( °F °C ) Dew Point ( °F °C ) Humidity (%) Winds ( mph kmh ) Pressure ( in mb ) Visibility ( mi km ) Precip ( " mm )
12:04 am 00:04 Mostly Cloudy 23 -5 23 -5 100 100 WNW 16 26 30.06 1018 10 16 0.00 0.00
12:19 am 00:19 Mostly Cloudy with Light Snow 23 -5 23 -5 100 100 WNW 14 22 30.06 1018 10 16 0.00 0.00
12:58 am 00:58 Cloudy with Light Snow 24 -4.4 24 -4.7 98 98 WNW 15 24 30.06 1018 10 16 0.00 0.03
1:07 am 01:07 Cloudy 25 -4 23 -5 93 93 WNW 14 22 30.06 1018 10 16 0.00 0.00
1:14 am 01:14 Cloudy with Light Snow 25 -4 23 -5 93 93 WNW 14 22 30.06 1018 10 16 0.00 0.00
1:35 am 01:35 Cloudy 25 -4 23 -5 93 93 WNW 14 22 30.06 1018 10 16 0.00 0.00
1:58 am 01:58 Cloudy 25 -4.1 24 -4.6 96 96 WNW 14 22 30.07 1018 10 16 0.00 0.03
2:58 am 02:58 Cloudy 25 -4.1 23 -4.8 95 95 WNW 14 22 30.08 1019 10 16 0.00 0.00
3:58 am 03:58 Cloudy 25 -4 23 -5 93 93 WNW 17 28 30.08 1019 10 16 0.00 0.00
4:47 am 04:47 Cloudy with Light Snow 25 -4 23 -5 93 93 WNW 16 26 30.09 1019 10 16 0.00 0.00
4:50 am 04:50 Cloudy with Light Snow 25 -4 23 -5 93 93 WNW 15 24 30.12 1020 10 16 0.00 0.00
4:58 am 04:58 Cloudy with Light Snow 25 -4.1 23 -4.8 95 95 WNW 16 26 30.10 1019 10 16 0.00 0.03
5:00 am 05:00 Cloudy 25 -4 23 -5 93 93 WNW 14 22 30.12 1020 10 16 0.00 0.00
5:58 am 05:58 Cloudy 24 -4.2 23 -4.8 96 96 WNW 16 26 30.11 1020 10 16 0.00 0.03
6:28 am 06:28 Cloudy 25 -4 23 -5 93 93 WNW 14 22 30.12 1020 10 16 0.00 0.00
6:37 am 06:37 Cloudy 25 -4 23 -5 93 93 WNW 14 22 30.12 1020 10 16 0.00 0.00
6:58 am 06:58 Cloudy 24 -4.2 23 -5 94 94 WNW 13 20 30.13 1020 10 16 0.00 0.00
7:07 am 07:07 Cloudy 25 -4 23 -5 93 93 WNW 15 24 30.15 1021 10 16 0.00 0.00
7:21 am 07:21 Cloudy 25 -4 23 -5 93 93 WNW 13 20 30.15 1021 10 16 0.00 0.00
7:28 am 07:28 Cloudy with Light Snow 25 -4 23 -5 93 93 WNW 14 22 30.15 1021 9 14 0.00 0.00
7:42 am 07:42 Cloudy 25 -4 23 -5 93 93 WNW 14 22 30.15 1021 10 16 0.00 0.00
7:58 am 07:58 Cloudy 25 -4.1 23 -5.2 92 92 WNW 13 20 30.15 1021 10 16 0.00 0.03
8:39 am 08:39 Cloudy with Light Snow 25 -4 23 -5 93 93 WNW 14 22 30.18 1022 10 16 0.00 0.00
8:44 am 08:44 Cloudy with Light Snow 25 -4 23 -5 93 93 WNW 15 24 30.15 1021 10 16 0.00 0.00
8:58 am 08:58 Cloudy with Light Snow 25 -4 23 -5.2 91 91 WNW 15 24 30.17 1022 10 16 0.00 0.03
9:50 am 09:50 Cloudy 25 -4 23 -5 93 93 WNW 15 24 30.18 1022 10 16 0.00 0.00
9:58 am 09:58 Cloudy 25 -3.9 22 -5.6 88 88 WNW 14 22 30.18 1022 10 16 0.00 0.03
10:26 am 10:26 Cloudy with Light Snow 25 -4 23 -5 93 93 NW 15 24 30.18 1022 10 16 0.00 0.00
10:35 am 10:35 Cloudy 25 -4 23 -5 93 93 WNW 16 26 30.18 1022 10 16 0.00 0.00
10:58 am 10:58 Cloudy 26 -3.5 22 -5.5 86 86 WNW 14 22 30.19 1023 10 16 0.00 0.03
11:58 am 11:58 Cloudy 27 -3 23 -5 86 86 WNW 12 19 30.18 1022 10 16 0.00 0.00
12:58 pm 12:58 Cloudy 27 -2.7 22 -5.4 82 82 W 10 17 30.17 1022 10 16 0.00 0.00
1:28 pm 13:28 Cloudy 28 -2 23 -5 80 80 WNW 12 19 30.18 1022 10 16 0.00 0.00
1:58 pm 13:58 Cloudy 28 -2.3 22 -5.3 80 80 WNW 13 20 30.16 1021 10 16 0.00 0.00
2:25 pm 14:25 Cloudy 28 -2 23 -5 80 80 WNW 10 17 30.18 1022 10 16 0.00 0.00
2:58 pm 14:58 Cloudy 28 -2.4 23 -5 83 83 W 8 13 30.17 1022 10 16 0.00 0.00
3:01 pm 15:01 Cloudy 28 -2 23 -5 80 80 W 9 15 30.18 1022 10 16 0.00 0.00
3:58 pm 15:58 Cloudy 28 -2.1 22 -5.3 79 79 W 10 17 30.18 1022 10 16 0.00 0.00
4:58 pm 16:58 Sunny 28 -2.5 22 -5.8 78 78 W 10 17 30.18 1022 10 16 0.00 0.00
6:58 pm 18:58 Clear 25 -4 20 -6.6 82 82 W 7 11 30.19 1022 10 16 0.00 0.00
7:58 pm 19:58 Clear 22 -5.3 19 -7.4 85 85 WNW 8 13 30.18 1022 10 16 0.00 0.00
8:58 pm 20:58 Clear 20 -6.6 17 -8.1 89 89 WNW 5 7 30.17 1022 10 16 0.00 0.00
9:58 pm 21:58 Clear 22 -5.5 18 -7.7 85 85 W 7 11 30.16 1021 10 16 0.00 0.00
11:58 pm 23:58 Cloudy 24 -4.5 19 -7 83 83 NW 13 20 30.15 1021 10 16 0.00 0.00

Powered by AerisWeather